Regional Weather Roundup
Issued by NWS

Home | Current Version | Previous Version | Graphics & Text | Print | Product List | Glossary On
Versions: 1 2 3 4 5 6 7 8 9 10 11 12 13 14 15 16 17 18 19 20 21 22 23 24 25 26 27 28 29 30 31 32 33 34 35 36 37 38 39 40 41 42 43 44 45 46 47 48 49 50
000
ASUS43 KDTX 020010
RWRMI
MICHIGAN HOURLY REGIONAL WEATHER ROUNDUP
NATIONAL WEATHER SERVICE DETROIT/PONTIAC MI
800 PM EDT MON SEP 01 2014

NOTE: "FAIR" INDICATES FEW OR NO CLOUDS BELOW 12,000 FEET WITH NO
SIGNIFICANT WEATHER AND/OR OBSTRUCTION TO VISIBILITY.

MIZ047>049-052>055-059>063-066>070-074>076-081>083-020100-
SOUTHEAST LOWER MICHIGAN

CITY           SKY/WX    TMP DP  RH WIND       PRES   REMARKS
ADRIAN         MOCLDY    80  69  69 SW9G21    29.80R
6HR MIN TEMP:  79; 6HR MAX TEMP:  87; 6HR PCP: TRACE;

ALMA           PTCLDY    75  67  77 SW7       29.76R
BAD AXE        MOCLDY    70  70 100 S6        29.76R
6HR MIN TEMP:  68; 6HR MAX TEMP:  82;

CARO           MOCLDY    72  70  95 S6        29.75R
DETROIT CITY   CLOUDY    76  70  82 W8        29.79R THUNDER
6HR MIN TEMP:  75; 6HR MAX TEMP:  87; 6HR PCP:  1.44;

DETROIT        CLOUDY    76  72  87 S9        29.79R
6HR MIN TEMP:  74; 6HR MAX TEMP:  86; 6HR PCP:  0.47;

FLINT          MOCLDY    76  69  79 SW5       29.77R
6HR MIN TEMP:  74; 6HR MAX TEMP:  85; 6HR PCP:  0.68;

GROSSE ILE     CLOUDY    81  70  69 SW10G16   29.78R
HILLSDALE      PTCLDY    77  72  84 SW8       29.81S
6HR MIN TEMP:  74; 6HR MAX TEMP:  84;

HOWELL         PTCLDY    72  70  95 SW5       29.79R
6HR MIN TEMP:  70; 6HR MAX TEMP:  82;


CITY           SKY/WX    TMP DP  RH WIND       PRES   REMARKS
JACKSON        PTCLDY    76  69  79 SW6       29.79R
6HR MIN TEMP:  74; 6HR MAX TEMP:  84; 6HR PCP:  0.04;

LAMBERTVILLE   CLOUDY    81  68  65 SW14G24   29.80S
LANSING        MOCLDY    75  71  87 SW7       29.77R
6HR MIN TEMP:  72; 6HR MAX TEMP:  80; 6HR PCP:  0.41;

LAPEER         FAIR      73  69  88 SW5       29.78R
MASON          CLEAR     74  70  87 SW3       29.78R
MONROE         CLOUDY    81  70  69 SW14      29.78R
MT. CLEMENS    CLOUDY    73  70  91 SW3       29.77R
6HR MIN TEMP:  71; 6HR MAX TEMP:  82; 6HR PCP:  0.49;

PONTIAC        CLOUDY    72  67  84 W7        29.78R
6HR MIN TEMP:  72; 6HR MAX TEMP:  83; 6HR PCP:  0.52;

PORT HOPE        N/A     70  67  90 SW5       29.73R
6HR MIN TEMP:  69; 6HR MAX TEMP:  83; 6HR PCP:  0.13;

PORT HURON     CLOUDY    70  68  94 CALM      29.79R
TRI CITIES     PTCLDY    77  70  79 SW8       29.75R
6HR MIN TEMP:  70; 6HR MAX TEMP:  84; 6HR PCP:  0.95;

TROY           CLOUDY    76  70  83 W3        29.80S
SAGINAW HB     MOCLDY    73  73 100 SW6       29.74R
$$
MIZ043>046-050>051-056>058-064>065-071>073-077>080-020100-
SOUTHWEST LOWER MICHIGAN

CITY           SKY/WX    TMP DP  RH WIND       PRES   REMARKS
BATTLE CREEK   MOCLDY    77  70  79 W8        29.79R
6HR MIN TEMP:  72; 6HR MAX TEMP:  80; 6HR PCP:  0.90;

BENTON HARBOR  CLEAR     76  66  71 W14       29.78R
6HR MIN TEMP:  73; 6HR MAX TEMP:  82; 6HR PCP: TRACE;

BIG RAPIDS     MOCLDY    74  69  85 SW7       29.74R
6HR MIN TEMP:  73; 6HR MAX TEMP:  79;

COLDWATER      CLEAR     78  71  78 SW9       29.79S
6HR MIN TEMP:  74; 6HR MAX TEMP:  83;

FREMONT        MOCLDY    74  65  73 W7        29.74R
HOLLAND        CLEAR     76  66  71 W13       29.77R
6HR MIN TEMP:  76; 6HR MAX TEMP:  81; 6HR PCP: TRACE;

GRAND RAPIDS   MOCLDY    78  69  73 SW16G24   29.77R
6HR MIN TEMP:  74; 6HR MAX TEMP:  81; 6HR PCP:  0.24;

IONIA          FAIR      76  66  72 W9        29.76R
KALAMAZOO      PTCLDY    79  66  64 W10       29.79R
6HR MIN TEMP:  73; 6HR MAX TEMP:  82; 6HR PCP:  0.41;

LUDINGTON      CLEAR     70  66  88 W8        29.74R
6HR MIN TEMP:  69; 6HR MAX TEMP:  75;

MARSHALL       PTCLDY    76  69  79 SW6       29.78S
MOUNT PLEASANT PTCLDY    76  66  71 SW7       29.74R
6HR MIN TEMP:  71; 6HR MAX TEMP:  81; 6HR PCP:  0.20;

MUSKEGON       MOCLDY    75  66  73 SW12      29.75R
6HR MIN TEMP:  73; 6HR MAX TEMP:  79; 6HR PCP: TRACE;

SOUTH HAVEN    CLEAR     77  67  71 W9G18     29.78R
$$
MIZ016>042-020100-
NORTHERN LOWER MICHIGAN

CITY           SKY/WX    TMP DP  RH WIND       PRES   REMARKS
ALPENA         MOCLDY    72  67  84 SW3       29.69R
6HR MIN TEMP:  69; 6HR MAX TEMP:  83; 6HR PCP:  1.09;

BEAVER ISLAND  MOCLDY    68  65  89 SW9G17    29.66S
6HR MIN TEMP:  68; 6HR MAX TEMP:  73;

BELLAIRE       CLOUDY    72  64  76 CALM      29.69R
6HR MIN TEMP:  69; 6HR MAX TEMP:  76;

CADILLAC       CLOUDY    71  67  88 W9        29.73R
CHARLEVOIX     CLOUDY    70  65  82 SW8       29.71R
6HR MIN TEMP:  67; 6HR MAX TEMP:  74;

FRANKFORT      PTCLDY    71  65  81 SW5       29.70S
GAYLORD        LGT RAIN  68  64  87 SW5       29.72R
6HR MIN TEMP:  67; 6HR MAX TEMP:  74; 6HR PCP:  0.65;

GRAYLING       CLOUDY    74  67  79 W8        29.73R
6HR MIN TEMP:  71; 6HR MAX TEMP:  77;

HARBOR SPRINGS CLOUDY    70  64  83 SW8       29.68R
HOUGHTON LAKE  MOCLDY    73  64  73 W10G20    29.73R
6HR MIN TEMP:  69; 6HR MAX TEMP:  76; 6HR PCP:  0.53;

MANISTEE       PTCLDY    72  63  73 W7G16     29.73R
OSCODA         MOCLDY    72  70  92 S6        29.70S
PELLSTON       CLEAR     69  64  84 SW12G20   29.68R
6HR MIN TEMP:  67; 6HR MAX TEMP:  76; 6HR PCP:  0.42;

ROGERS CITY    CLOUDY    72  66  83 W5        29.70R
TRAVERSE CITY  MOCLDY    73  64  73 SW8       29.68R
6HR MIN TEMP:  71; 6HR MAX TEMP:  78;

$$
MIZ007>008-015-020100-
EASTERN UPPER MICHIGAN

CITY           SKY/WX    TMP DP  RH WIND       PRES   REMARKS
KINROSS        MOCLDY    66  64  94 SW8       29.64R
6HR MIN TEMP:  66; 6HR MAX TEMP:  79; 6HR PCP:  0.55;

MACKINAC ISLAN CLEAR     66  64  94 SW10G16   29.65S
6HR MIN TEMP:  64; 6HR MAX TEMP:  76;

NEWBERRY       MOCLDY    66  62  87 W9G23     29.64R
S. S. MARIE    PTCLDY    68  62  81 SW12      29.62R
6HR MIN TEMP:  68; 6HR MAX TEMP:  72; 6HR PCP:  0.25;

MUNISING         N/A     65  61  87 CALM      29.63R
6HR MIN TEMP:  65; 6HR MAX TEMP:  75; 6HR PCP:  0.09;

$$
MIZ004>006-011>014-085-020100-
CENTRAL UPPER MICHIGAN

CITY           SKY/WX    TMP DP  RH WIND       PRES   REMARKS
MANISTIQUE     MOCLDY    70  64  82 W7        29.64R
ESCANABA       MOCLDY    66  59  77 NW8       29.66R
6HR MIN TEMP:  66; 6HR MAX TEMP:  75;

MENOMINEE      PTCLDY    72  63  73 W3        29.67R
6HR MIN TEMP:  66; 6HR MAX TEMP:  75;

SAWYER-GWINN   CLEAR     66  57  72 W9        29.66R
$$
MIZ001>003-009>011-084-020100-
WESTERN UPPER MICHIGAN

CITY           SKY/WX    TMP DP  RH WIND       PRES   REMARKS
IRON MOUNTAIN  CLEAR     70  60  70 W7        29.68R
6HR MIN TEMP:  66; 6HR MAX TEMP:  73; 6HR PCP:  0.07;

HOUGHTON       CLEAR     64  56  75 W16       29.64R
6HR MIN TEMP:  64; 6HR MAX TEMP:  68;

COPPER HARBOR    N/A     66  57  72 NW10G18   29.60R
6HR MIN TEMP:  64; 6HR MAX TEMP:  69;

$$

ABBREVIATIONS USED IN REMARKS
   TC - TEMPERATURE IN CELSIUS
  WCI - WIND CHILL INDEX
   HX - HEAT INDEX
  VSB - VISIBILITY



USA.gov is the U.S. government's official web portal to all federal, state and local government web resources and services.